This is the latest recevied weather packets stored in our database for station/object DL9GJ-6. If no packets are shown the sender has not sent any weather packets the latest 10 day(s).
| Time | Temp. | Humidity | Pressure | Rain* | Wind** | Luminosity | Snow |
|---|---|---|---|---|---|---|---|
| 1777801463 | 21.67° C | 41% | 1014.3 hPa | 0 mm | - | 808 W/m² | - |
| 1777801451 | 21.67° C | 41% | 1014.3 hPa | 0 mm | - | 808 W/m² | - |
| 1777801103 | 21.11° C | 43% | 1014.4 hPa | 0 mm | - | 781 W/m² | - |
| 1777800743 | 21.11° C | 43% | 1014.4 hPa | 0 mm | - | 771 W/m² | - |
| 1777800735 | 21.11° C | 43% | 1014.4 hPa | 0 mm | - | 771 W/m² | - |
| 1777800383 | 21.11° C | 43% | 1014.5 hPa | 0 mm | - | 726 W/m² | - |
| 1777800372 | 21.11° C | 43% | 1014.5 hPa | 0 mm | - | 726 W/m² | - |
| 1777800023 | 20.56° C | 45% | 1014.5 hPa | 0 mm | - | 571 W/m² | - |
| 1777799664 | 20.56° C | 44% | 1014.5 hPa | 0 mm | - | 520 W/m² | - |
| 1777799305 | 20.56° C | 44% | 1014.6 hPa | 0 mm | - | 513 W/m² | - |
| 1777798944 | 20.56° C | 48% | 1014.6 hPa | 0 mm | - | 509 W/m² | - |
| 1777798584 | 20.56° C | 46% | 1014.6 hPa | 0 mm | - | 618 W/m² | - |
| 1777798225 | 20.56° C | 49% | 1014.6 hPa | 0 mm | - | 719 W/m² | - |
| 1777797864 | 20° C | 49% | 1014.6 hPa | 0 mm | - | 673 W/m² | - |
| 1777797505 | 19.44° C | 47% | 1014.7 hPa | 0 mm | - | 465 W/m² | - |
| 1777797144 | 19.44° C | 53% | 1014.8 hPa | 0 mm | - | 429 W/m² | - |
| 1777796784 | 19.44° C | 54% | 1014.8 hPa | 0 mm | - | 536 W/m² | - |
| 1777796771 | 19.44° C | 54% | 1014.8 hPa | 0 mm | - | 536 W/m² | - |
| 1777796425 | 18.89° C | 58% | 1014.8 hPa | 0 mm | - | 528 W/m² | - |
| 1777796065 | 18.33° C | 59% | 1014.9 hPa | 0 mm | - | 490 W/m² | - |
| 1777796051 | 18.33° C | 59% | 1014.9 hPa | 0 mm | - | 490 W/m² | - |
| 1777795705 | 17.78° C | 60% | 1014.9 hPa | 0 mm | - | 501 W/m² | - |
| 1777795344 | 17.78° C | 61% | 1014.8 hPa | 0 mm | - | 602 W/m² | - |
| 1777795332 | 17.78° C | 61% | 1014.8 hPa | 0 mm | - | 602 W/m² | - |
| 1777794984 | 17.22° C | 62% | 1014.9 hPa | 0 mm | - | 604 W/m² | - |
* Rain latest hour (hover to see other rain measurements)
** Current wind speed in m/s (hover to see current wind gust speed)